Location: Plymouth Village
(34.0436°N, 117.1717°W)
Time: 03:37:24
(UTC+00:00)

Cosmos 1602 - Pass Details

Date: 10 September 2024
Orbit: 455 x 470 km, 82.5° (Epoch: 09 October)

Event Time Altitude Azimuth Distance (km) Brightness Sun altitude
Rises 12:26:36 0° 349° (N) 2,475 7.2 -13.5°
Reaches altitude 10° 12:28:41 10° 346° (NNW) 1,597 6.2 -13.1°
Maximum altitude 12:32:07 60° 266° (W) 523 3.4 -12.4°
Drops below altitude 10° 12:35:32 10° 185° (S) 1,587 6.0 -11.7°
Sets 12:37:36 0° 182° (S) 2,458 7.0 -11.3°
